STARLINK-4530, 53393

Orbit data source: Space-Track

STARLINK-4530, 53393 is a payload satellite owned by SpaceX/Seattle (US) in LEO that was launched on Wed, 10 Aug 2022 UTC via an FALCON 9 launch vehicle from the Air Force Eastern Test Range (AFETR). Payload-class satellites include a variety of spacecraft equipped with specific instruments for various scientific and technological missions. These include communications satellites like Starlink; space stations such as the ISS; scientific satellites like the Hubble; Earth observation satellites from companies like Planet Labs, Umbra, and HawkEye 360; GPS; miniature CubeSats for education and research; and military/defense satellites.

Loading next visibility...
Identifier
53393, 2022-097F
Orbit
LEO
Country
Flag of USUS
Related business
Manufacturer
SpaceX/Seattle
Mission
Operational Commercial Communications
Bus & Motor
STARLINK, Unknown motor
Mass
297 kg wet, ~275 kg dry
Launch date (UTC)
2022-08-10 (4 years ago)
Launch vehicle
FALCON 9
Launch site
Air Force Eastern Test Range (AFETR)
Object type
Payload
Rocket body
Debris
Shape & HBR
Box + 1 Pan, 10.1 m
Radar Cross Section
13.562 m², Large (>1 m²)

Expand to show TLE details & history
Last TLE update: 21 hours ago

TLE from 21 hours ago
0 STARLINK-4530
1 53393U 22097F   26144.15616313 -.00002725  00000-0 -15324-3 0  9992
2 53393  53.2146 145.3361 0001182  50.9871 309.1226 15.08822858210060
Epoch: 2026-05-24T03:44Z
TLE epoch observation values (Epoch: 2026-05-24T03:44:52.494Z)
Latitude
-0.00004°
Longitude
-152.64501°
Altitude
540.177 km
Speed
7.594 km/s
True Right ascension
09h 41m 20s
True Declination
0° 00' 00"
Sunlit
Object was in daylight at epoch
Visualization orbit readout
Latitude
Unknown
Longitude
Unknown
Altitude
Unknown
Speed
Unknown
Apparent Right ascension
Unknown
Apparent Declination
Unknown
Sunlit
N/A
Visualization observer readout
Local Sidereal Time
10:01:37
Azimuth
Unknown
Elevation
Unknown
Doppler factor
Unknown
Orbital elements
Apogee altitude
540.859 km
Perigee altitude
539.223 km
Semi-major axis
6,918.178 km
Eccentricity
0.00012
Inclination
53.2146°
RAAN
145.3361°
Arg. of periapsis
50.9871°
True anomaly
309.11209°
Mean anomaly
309.1226°
Eccentric anomaly
309.11735°
Mean motion
3.77186 °/min
Orbital period
95.44 mins
BSTAR
-0.00015324
Loading maneuver chart data...
Computing Atmospheric mass density...
Loading historical data...
Loading historical data...
Loading historical data...
Loading historical data...
Loading historical data...
Loading historical data...
Loading historical data...

Documentation

Showing up to 5 results
|